Change the Weather History Date:

Monday, January 2, 2012

  Actual Average Record
Temperature  
Mean Temperature 26 °F -  
Max Temperature 37 °F 32 °F 60 °F (1955)
Min Temperature 14 °F 12 °F -17 °F (1974)
Degree Days  
Heating Degree Days 40    
Moisture  
Dew Point 6 °F    
Average Humidity 47    
Maximum Humidity 79    
Minimum Humidity 20    
Precipitation  
Precipitation 0.00 in - - ()
Sea Level Pressure  
Sea Level Pressure 30.61 in    
Wind  
Wind Speed 1 mph (NW)    
Max Wind Speed 15 mph    
Max Gust Speed 22 mph    
Visibility 10 miles    
Events      
Averages and records for this station are not official NWS values.
T = Trace of Precipitation, MM = Missing Value Source: NWS Daily Summary

Daily Weather History Graph

Daily Weather History Graph

Search for Another Location

Airport or City:

Trip Planner

Search our weather history database for the weather conditions in past years. The results will help you decide how hot, cold, wet, or windy it might be!

Date:

Astronomy

Jan. 02, 2012 Rise Set
Actual Time 7:52 AM CST 5:15 PM CST
Civil Twilight 7:22 AM CST 5:46 PM CST
Nautical Twilight 6:48 AM CST 6:20 PM CST
Astronomical Twilight 6:15 AM CST 6:53 PM CST
Moon 12:33 PM CST (1/2) 1:46 AM CST (1/2)
Length of Visible Light 10h 24m
Length of Day
9h 23m
Waxing Gibbous, 64% of the Moon is Illuminated
Jan 2
Waxing Gibbous
Jan 9
Full
Jan 16
Last Quarter
Jan 23
New
Jan 30
First Quarter

Hourly Weather History & Observations

Time (CST) Temp. Windchill Dew Point Humidity Pressure Visibility Wind Dir Wind Speed Gust Speed Precip Events Conditions
12:15 AM 26.6 °F - 8.6 °F 47% 30.64 in 10.0 mi Calm Calm - N/A   Clear
12:35 AM 26.6 °F - 8.6 °F 47% 30.64 in 10.0 mi Calm Calm - N/A   Clear
12:55 AM 24.8 °F - 8.6 °F 50% 30.64 in 10.0 mi Calm Calm - N/A   Clear
1:15 AM 24.8 °F - 8.6 °F 50% 30.64 in 10.0 mi Calm Calm - N/A   Clear
1:35 AM 24.8 °F 16.9 °F 8.6 °F 50% 30.65 in 10.0 mi NW 6.9 mph - N/A   Clear
1:55 AM 24.8 °F - 8.6 °F 50% 30.64 in 10.0 mi Calm Calm - N/A   Clear
2:15 AM 23.0 °F - 8.6 °F 54% 30.64 in 10.0 mi Calm Calm - N/A   Clear
2:35 AM 23.0 °F - 8.6 °F 54% 30.65 in 10.0 mi Calm Calm - N/A   Clear
2:55 AM 23.0 °F - 8.6 °F 54% 30.66 in 10.0 mi Calm Calm - N/A   Clear
3:15 AM 21.2 °F - 8.6 °F 58% 30.66 in 10.0 mi Calm Calm - N/A   Clear
3:35 AM 21.2 °F - 8.6 °F 58% 30.65 in 10.0 mi Calm Calm - N/A   Clear
3:55 AM 21.2 °F - 8.6 °F 58% 30.65 in 10.0 mi Calm Calm - N/A   Clear
4:15 AM 19.4 °F - 8.6 °F 63% 30.66 in 10.0 mi Calm Calm - N/A   Clear
4:35 AM 19.4 °F - 8.6 °F 63% 30.66 in 10.0 mi Calm Calm - N/A   Clear
4:55 AM 19.4 °F - 8.6 °F 63% 30.67 in 10.0 mi Calm Calm - N/A   Clear
5:15 AM 17.6 °F - 8.6 °F 68% 30.65 in 10.0 mi Calm Calm - N/A   Clear
5:35 AM 17.6 °F - 8.6 °F 68% 30.65 in 10.0 mi Calm Calm - N/A   Clear
5:55 AM 17.6 °F - 8.6 °F 68% 30.65 in 10.0 mi Calm Calm - N/A   Clear
6:15 AM 15.8 °F - 8.6 °F 73% 30.65 in 10.0 mi Calm Calm - N/A   Clear
6:35 AM 15.8 °F - 8.6 °F 73% 30.64 in 10.0 mi Calm Calm - N/A   Clear
6:55 AM 14.0 °F - 8.6 °F 79% 30.65 in 10.0 mi Calm Calm - N/A   Clear
7:15 AM 14.0 °F - 6.8 °F 73% 30.65 in 10.0 mi Calm Calm - N/A   Clear
7:35 AM 14.0 °F - 8.6 °F 79% 30.65 in 10.0 mi Calm Calm - N/A   Clear
7:55 AM 14.0 °F - 6.8 °F 73% 30.66 in 10.0 mi Calm Calm - N/A   Clear
8:15 AM 14.0 °F - 8.6 °F 79% 30.67 in 10.0 mi Calm Calm - N/A   Clear
8:35 AM 14.0 °F - 8.6 °F 79% 30.68 in 10.0 mi Calm Calm - N/A   Clear
9:15 AM 21.2 °F - 10.4 °F 63% 30.68 in 10.0 mi Calm Calm - N/A   Clear
9:35 AM 23.0 °F - 8.6 °F 54% 30.69 in 10.0 mi Calm Calm - N/A   Clear
10:15 AM 28.4 °F 18.0 °F 8.6 °F 43% 30.70 in 10.0 mi NW 12.7 mph 17.3 mph N/A   Clear
10:35 AM 28.4 °F 19.1 °F 8.6 °F 43% 30.69 in 10.0 mi NW 10.4 mph - N/A   Clear
10:55 AM 30.2 °F 23.4 °F 8.6 °F 40% 30.69 in 10.0 mi NW 6.9 mph - N/A   Clear
11:15 AM 32.0 °F - 6.8 °F 35% 30.67 in 10.0 mi Calm Calm - N/A   Clear
11:35 AM 32.0 °F - 3.2 °F 30% 30.66 in 10.0 mi Calm Calm - N/A   Clear
11:55 AM 32.0 °F 23.6 °F 1.4 °F 27% 30.65 in 10.0 mi NNW 10.4 mph 18.4 mph N/A   Clear
12:15 PM 33.8 °F 23.9 °F 1.4 °F 25% 30.64 in 10.0 mi NW 15.0 mph 21.9 mph N/A   Clear
12:35 PM 33.8 °F - -0.4 °F 23% 30.63 in 10.0 mi Calm Calm - N/A   Clear
12:55 PM 35.6 °F - 1.4 °F 24% 30.63 in 10.0 mi Calm Calm - N/A   Clear
1:15 PM 35.6 °F - -0.4 °F 22% 30.61 in 10.0 mi Calm Calm - N/A   Clear
1:55 PM 35.6 °F - -0.4 °F 22% 30.58 in 10.0 mi Calm Calm - N/A   Clear
2:15 PM 37.4 °F - -0.4 °F 20% 30.58 in 10.0 mi Calm Calm - N/A   Clear
2:35 PM 37.4 °F 30.8 °F -0.4 °F 20% 30.57 in 10.0 mi NNW 9.2 mph - N/A   Clear
2:55 PM 37.4 °F - -0.4 °F 20% 30.57 in 10.0 mi Calm Calm - N/A   Clear
3:15 PM 37.4 °F - 1.4 °F 22% 30.57 in 10.0 mi Calm Calm - N/A   Clear
3:35 PM 37.4 °F - 1.4 °F 22% 30.56 in 10.0 mi Calm Calm - N/A   Clear
3:55 PM 37.4 °F - 1.4 °F 22% 30.56 in 10.0 mi Calm Calm - N/A   Clear
4:15 PM 35.6 °F - 3.2 °F 26% 30.56 in 10.0 mi Calm Calm - N/A   Clear
4:35 PM 35.6 °F - 3.2 °F 26% 30.56 in 10.0 mi Calm Calm - N/A   Clear
4:55 PM 33.8 °F - 3.2 °F 28% 30.54 in 10.0 mi Calm Calm - N/A   Clear
5:15 PM 32.0 °F - 3.2 °F 30% 30.54 in 10.0 mi Calm Calm - N/A   Clear
5:35 PM 30.2 °F - 1.4 °F 29% 30.53 in 10.0 mi Calm Calm - N/A   Clear
5:55 PM 30.2 °F - 1.4 °F 29% 30.52 in 10.0 mi Calm Calm - N/A   Clear
6:15 PM 26.6 °F - 3.2 °F 37% 30.52 in 10.0 mi Calm Calm - N/A   Clear
6:35 PM 24.8 °F - 3.2 °F 40% 30.52 in 10.0 mi Calm Calm - N/A   Clear
6:55 PM 23.0 °F - 5.0 °F 46% 30.51 in 10.0 mi Calm Calm - N/A   Clear
7:15 PM 23.0 °F - 5.0 °F 46% 30.51 in 10.0 mi Calm Calm - N/A   Clear
7:35 PM 21.2 °F - 6.8 °F 54% 30.51 in 10.0 mi Calm Calm - N/A   Clear
7:55 PM 21.2 °F - 5.0 °F 50% 30.51 in 10.0 mi Calm Calm - N/A   Clear
8:15 PM 21.2 °F - 5.0 °F 50% 30.51 in 10.0 mi Calm Calm - N/A   Clear
8:35 PM 19.4 °F - 5.0 °F 54% 30.52 in 10.0 mi Calm Calm - N/A   Clear
8:55 PM 19.4 °F - 6.8 °F 58% 30.51 in 10.0 mi Calm Calm - N/A   Clear
9:15 PM 17.6 °F - 8.6 °F 68% 30.51 in 10.0 mi Calm Calm - N/A   Clear
9:35 PM 17.6 °F - 8.6 °F 68% 30.50 in 10.0 mi Calm Calm - N/A   Clear
9:55 PM 17.6 °F - 8.6 °F 68% 30.49 in 10.0 mi Calm Calm - N/A   Clear
10:15 PM 15.8 °F - 8.6 °F 73% 30.47 in 10.0 mi Calm Calm - N/A   Clear
10:35 PM 17.6 °F - 8.6 °F 68% 30.47 in 10.0 mi Calm Calm - N/A   Clear
10:55 PM 17.6 °F - 8.6 °F 68% 30.46 in 10.0 mi Calm Calm - N/A   Clear
11:15 PM 17.6 °F - 8.6 °F 68% 30.45 in 10.0 mi Calm Calm - N/A   Clear
11:35 PM 19.4 °F - 8.6 °F 63% 30.43 in 10.0 mi Calm Calm - N/A   Clear
11:55 PM 23.0 °F - 8.6 °F 54% 30.42 in 10.0 mi Calm Calm - N/A   Clear